NOAA 16 DEB

Satellite information

Favourite Embed

Satellite Type and Status

DEBRISIN ORBIT

Key statistics

Satellite NOAA 16 DEB at a glance.

Uptime

9162

Days in orbit

Revolutions

≈ 14.4

Per day

Orbit

SSO

Sun Synchronous Orbit

Inclination

98.8

Latest

Satellite identification and parameters

Extended collection of information and parameters for NOAA 16 DEB.

Object identification

Identified? True

Debris? True

Object name: NOAA 16 DEB

International designator: 2000-055KB

Object number (NORAD): 41398

Object ID (CCSDS): 41398

Country: UNITED STATES OF AMERICA (US)

Current information (Y/N): Y

RCS size: SMALL

Orbital parameters

Period: 100.314 minutes

Inclination: 98.8134 deg

SMA: 7151.569 km

Apoapsis: 785.27 km

Periapsis: 761.597 km

RAAN: 46.7446 deg

Eccentricy: 0.00165511

Argument of periapsis: 201.8635 deg

Mean anomaly: 158.1845 deg

Mean motion: 14.35492086 rev/day

Mean motion (dot): 0.00009608 rev/day2

B* drag term: 0.0033469606 1/REarth

Two-line elements (TLE)

Creation date: Oct. 21, 2025, 6:24 p.m.

Reference frame: TEME

Reference center: EARTH

Epoch: Oct. 21, 2025, 5:58 a.m. UTC

TLE line 0: 0 NOAA 16 DEB

TLE line 1: 1 41398U 00055KB 25294.24923431 .00009608 00000-0 33470-2 0 9997

TLE line 2: 2 41398 98.8134 46.7446 0016551 201.8635 158.1845 14.35492086499932

Live tracking on map

Real-time ground track for satellite NOAA 16 DEB.

In-orbit conjunctions

A list of the most updated potential collisions computed for object NOAA 16 DEB.

Target Orbit TCA Probability of collision Miss distance Type
CZ-6A R/B LEO 2025-06-28 14:29:35 0.0004997324 151.0 (m) ROCKET BODY
DELTA 1 DEB SSO 2025-04-13 03:50:21 0.0002922919 62.0 (m) DEBRIS
CZ-6A DEB LEO 2025-03-02 12:38:36 0.0003215419 218.0 (m) DEBRIS
SL-8 R/B LEO 2024-11-09 13:39:57 0.0001029334 571.0 (m) ROCKET BODY
CZ-6A DEB SSO 2024-07-02 10:42:19 0.0002205755 70.0 (m) DEBRIS

Associated space launch

The NOAA K, L and M POES satellites begin the fifth generation of improved environmental monitoring in support of NOAA missions. The instrument payload has significant improvements and additions/deletions. The instrument changes have effected the spacecraft subsystems and data formats.

NOAA 16 DEB was lifted into orbit during the mission ‘Titan II SLV | NOAA 16’, on board a Titan II SLV space rocket.

The launch took place on Sept. 21, 2000, 10:22 a.m. from Space Launch Complex 4W.

For more information about the launch, click the button.

Launch to space Titan II SLV | NOAA 16
Titan II SLV | NOAA 16

Agency: N/A

Status: Launch Successful

Launch date: Sept. 21, 2000, 10:22 a.m. UTC

Rocket: Titan II SLV

Launch pad: Space Launch Complex 4W

Location: Vandenberg SFB, CA, USA

...

Latest news about this satellite

There are no fresh news available about this satellite. Check back as we update our databases every day.


Newsletter sign-up

Weekly statistics, charts and insights to help you stay on top of the space industry.